This demonstration page uses our WeatherBlox Daily Observations layout. Learn more.

40.92945, -100.16068

Hourly Observations for May 5, 2017

Temp ( °F °C ) Dew Point ( °F °C ) Humidity (%) Winds ( mph kmh ) Pressure ( in mb ) Visibility ( mi km ) Precip ( " mm )
12:15 am 00:15 Clear 45 7 39 4 81 81 Calm 30.15 1021 10 16.09344 0 0
12:35 am 00:35 Clear 42 5.6 38 3.1 84 84 NE 3 6 30.15 1021 10 16.09344 0 0
12:55 am 00:55 Clear 42 5.8 38 3.1 83 83 Calm 30.15 1021 10 16.09344 0 0
1:15 am 01:15 Clear 42 5.4 37 2.7 83 83 Calm 30.15 1021 10 16.09344 0 0
1:35 am 01:35 Clear 41 5 37 2.6 85 85 Calm 30.15 1021 10 16.09344 0 0
1:55 am 01:55 Clear 41 5 37 3 87 87 Calm 30.15 1021 10 16.09344 0 0
2:15 am 02:15 Clear 41 4.8 37 2.8 87 87 Calm 30.15 1021 10 16.09344 0 0
2:35 am 02:35 Clear 40 4.7 37 2.5 86 86 Calm 30.15 1021 10 16.09344 0 0
2:55 am 02:55 Clear 38 3.3 34 1.2 86 86 NW 3 6 30.18 1022 10 16.09344 0 0
3:15 am 03:15 Clear 38 3.2 35 1.4 88 88 NW 3 6 30.18 1022 10 16.09344 0 0
3:35 am 03:35 Clear 38 3.4 35 1.4 87 87 Calm 30.18 1022 10 16.09344 0 0
3:55 am 03:55 Clear 37 3 34 1.3 89 89 Calm 30.18 1022 10 16.09344 0 0
4:15 am 04:15 Clear 38 3.2 35 1.8 91 91 W 3 6 30.18 1022 10 16.09344 0 0
4:35 am 04:35 Clear 37 2.6 34 1.1 90 90 Calm 30.15 1021 10 16.09344 0 0
4:55 am 04:55 Clear 37 2.6 34 1 89 89 Calm 30.15 1021 10 16.09344 0 0
5:15 am 05:15 Clear 37 2.7 34 1.1 89 89 NW 3 6 30.15 1021 10 16.09344 0 0
5:35 am 05:35 Clear 36 2 33 0.6 91 91 NW 5 7 30.15 1021 10 16.09344 0 0
5:55 am 05:55 Clear 37 2.5 34 1.3 92 92 NNW 5 7 30.15 1021 10 16.09344 0 0
6:15 am 06:15 Clear 36 2.3 34 1 91 91 Calm 30.15 1021 10 16.09344 0 0
6:35 am 06:35 Sunny 36 2.3 34 1 91 91 Calm 30.15 1021 10 16.09344 0 0
6:55 am 06:55 Sunny 36 2.4 33 0.5 87 87 Calm 30.15 1021 10 16.09344 0 0
7:15 am 07:15 Sunny 37 2.7 34 1 89 89 Calm 30.15 1021 10 16.09344 0 0
7:35 am 07:35 Sunny 39 4 37 2.6 91 91 Calm 30.15 1021 10 16.09344 0 0
7:55 am 07:55 Sunny 42 5.8 38 3.4 85 85 Calm 30.12 1020 10 16.09344 0 0
8:15 am 08:15 Sunny 45 7.4 40 4.4 81 81 Calm 30.09 1019 10 16.09344 0 0
8:35 am 08:35 Sunny 49 9.3 43 6 80 80 Calm 30.09 1019 10 16.09344 0 0
8:55 am 08:55 Sunny 53 11.8 43 6.2 69 69 S 3 6 30.06 1018 10 16.09344 0 0
9:15 am 09:15 Sunny 58 14.4 44 6.5 59 59 S 7 11 30.03 1017 10 16.09344 0 0
9:35 am 09:35 Sunny 62 16.6 42 5.8 49 49 S 9 15 30.03 1017 10 16.09344 0 0
9:55 am 09:55 Sunny 63 17.4 39 3.9 41 41 S 12 19 30 1016 10 16.09344 0 0
10:15 am 10:15 Sunny 64 18 39 4.1 40 40 S 13 20 29.97 1015 10 16.09344 0 0
10:35 am 10:35 Sunny 65 18.6 40 4.2 39 39 S 12 19 29.97 1015 10 16.09344 0 0
10:55 am 10:55 Sunny 66 19.1 40 4.2 38 38 SSW 9 15 29.97 1015 10 16.09344 0 0
11:15 am 11:15 Sunny 67 19.7 40 4.6 37 37 S 9 15 29.97 1015 10 16.09344 0 0
11:35 am 11:35 Sunny 68 20.2 39 3.7 34 34 SSW 9 15 29.94 1014 10 16.09344 0 0
11:55 am 11:55 Sunny 69 20.5 40 4.2 34 34 S 7 11 29.94 1014 10 16.09344 0 0
12:15 pm 12:15 Sunny 70 21 40 4.4 34 34 SSW 8 13 29.94 1014 10 16.09344 0 0
12:35 pm 12:35 Sunny 70 21.1 39 4 33 33 SSW 10 17 29.94 1014 10 16.09344 0 0
12:55 pm 12:55 Sunny 71 21.6 39 4.1 32 32 SE 3 6 29.94 1014 10 16.09344 0 0
1:15 pm 13:15 Sunny 72 22 36 2.3 27 27 SW 5 7 29.94 1014 10 16.09344 0 0
1:35 pm 13:35 Sunny 72 22.4 37 3 28 28 WNW 5 7 29.94 1014 10 16.09344 0 0
1:55 pm 13:55 Sunny 73 23 38 3.3 28 28 SW 3 6 29.91 1013 10 16.09344 0 0
2:15 pm 14:15 Sunny 74 23.1 38 3.3 27 27 W 6 9 29.91 1013 10 16.09344 0 0
2:35 pm 14:35 Sunny 74 23.3 39 3.8 28 28 WNW 7 11 29.91 1013 10 16.09344 0 0
2:55 pm 14:55 Sunny 74 23.6 39 3.8 28 28 NW 3 6 29.88 1012 10 16.09344 0 0
3:15 pm 15:15 Sunny 75 24 39 4 27 27 W 6 9 29.85 1011 10 16.09344 0 0
3:35 pm 15:35 Sunny 76 24.2 37 2.7 25 25 Calm 29.85 1011 10 16.09344 0 0
3:55 pm 15:55 Sunny 76 24.3 39 4.1 27 27 NNW 6 9 29.85 1011 10 16.09344 0 0
4:15 pm 16:15 Sunny 76 24.6 38 3.3 25 25 W 7 11 29.85 1011 10 16.09344 0 0
4:35 pm 16:35 Sunny 77 24.9 37 3 24 24 Calm 29.83 1010 10 16.09344 0 0
4:55 pm 16:55 Sunny 77 25.1 38 3.3 24 24 NNW 6 9 29.83 1010 10 16.09344 0 0
5:15 pm 17:15 Sunny 77 25 37 3 24 24 NW 3 6 29.83 1010 10 16.09344 0 0
5:35 pm 17:35 Sunny 77 25.1 38 3.3 24 24 Calm 29.83 1010 10 16.09344 0 0
5:55 pm 17:55 Sunny 77 25 38 3.5 25 25 WNW 5 7 29.8 1009 10 16.09344 0 0
6:15 pm 18:15 Sunny 77 25 38 3.3 24 24 NW 5 7 29.8 1009 10 16.09344 0 0
6:35 pm 18:35 Sunny 76 24.6 40 4.2 27 27 NE 3 6 29.8 1009 10 16.09344 0 0
6:55 pm 18:55 Sunny 76 24.2 40 4.6 28 28 Calm 29.8 1009 10 16.09344 0 0
7:15 pm 19:15 Sunny 76 24.3 44 6.6 32 32 Calm 29.8 1009 10 16.09344 0 0
7:35 pm 19:35 Sunny 74 23.4 41 5.2 31 31 ENE 5 7 29.8 1009 10 16.09344 0 0
7:55 pm 19:55 Sunny 70 21.1 46 7.9 43 43 ENE 7 11 29.83 1010 10 16.09344 0 0
8:15 pm 20:15 Sunny 67 19.5 45 7.4 46 46 E 7 11 29.83 1010 10 16.09344 0 0
8:35 pm 20:35 Sunny 64 18 45 7 49 49 E 7 11 29.85 1011 10 16.09344 0 0
8:55 pm 20:55 Clear 66 18.7 41 5.2 41 41 E 7 11 29.88 1012 10 16.09344 0 0
9:15 pm 21:15 Clear 62 16.9 42 5.6 48 48 E 6 9 29.88 1012 10 16.09344 0 0
9:35 pm 21:35 Clear 61 15.9 42 5.6 51 51 E 8 13 29.88 1012 10 16.09344 0 0
9:55 pm 21:55 Clear 58 14.4 43 6.1 58 58 E 6 9 29.91 1013 10 16.09344 0 0
10:15 pm 22:15 Clear 58 14.3 43 6 58 58 ESE 5 7 29.91 1013 10 16.09344 0 0
10:35 pm 22:35 Clear 55 13 43 6.2 64 64 ESE 3 6 29.91 1013 10 16.09344 0 0
10:55 pm 22:55 Clear 57 13.7 43 5.9 60 60 Calm 29.91 1013 10 16.09344 0 0
11:15 pm 23:15 Clear 58 14.4 42 5.6 56 56 ESE 3 6 29.91 1013 10 16.09344 0 0
11:35 pm 23:35 Clear 55 12.9 42 5.7 62 62 SE 3 6 29.91 1013 10 16.09344 0 0
11:55 pm 23:55 Clear 53 11.9 42 5.6 66 66 S 6 9 29.94 1014 10 16.09344 0 0

Powered by AerisWeather